Wetterdaten: Donnerstag, 11.02.2010
Datum Zeit Temp. A. Feuchte A. Luftdruck Regen Wind Richtung Richtung Sonnenschein UV Solar Windben
11.02.2010 00:00 -5,7 C 83 % 1012,1 hPa 0,0 mm 3,2 km/h (1 Bft) O 90 0 min 0 UV-I 0 W/m 8,0 km/h (2 Bft)
11.02.2010 00:10 -5,6 C 83 % 1012,1 hPa 0,0 mm 1,6 km/h (1 Bft) O 90 0 min 0 UV-I 0 W/m 4,8 km/h (1 Bft)
11.02.2010 00:20 -5,5 C 84 % 1012,1 hPa 0,0 mm 1,6 km/h (1 Bft) O-NO 67 0 min 0 UV-I 0 W/m 4,8 km/h (1 Bft)
11.02.2010 00:30 -5,4 C 84 % 1012,1 hPa 0,0 mm 1,6 km/h (1 Bft) NO 45 0 min 0 UV-I 0 W/m 6,4 km/h (2 Bft)
11.02.2010 00:40 -5,3 C 84 % 1012,1 hPa 0,0 mm 1,6 km/h (1 Bft) O-NO 67 0 min 0 UV-I 0 W/m 8,0 km/h (2 Bft)
11.02.2010 00:50 -5,3 C 84 % 1012,0 hPa 0,0 mm 1,6 km/h (1 Bft) NO 45 0 min 0 UV-I 0 W/m 6,4 km/h (2 Bft)
11.02.2010 01:00 -5,2 C 84 % 1011,9 hPa 0,0 mm 1,6 km/h (1 Bft) N-NO 22 0 min 0 UV-I 0 W/m 6,4 km/h (2 Bft)
11.02.2010 01:10 -5,1 C 84 % 1011,9 hPa 0,0 mm 1,6 km/h (1 Bft) N-NO 22 0 min 0 UV-I 0 W/m 8,0 km/h (2 Bft)
11.02.2010 01:20 -5,1 C 84 % 1011,9 hPa 0,0 mm 0,0 km/h (0 Bft) N-NO 22 0 min 0 UV-I 0 W/m 3,2 km/h (1 Bft)
11.02.2010 01:30 -5,0 C 84 % 1011,7 hPa 0,0 mm 1,6 km/h (1 Bft) N 360 0 min 0 UV-I 0 W/m 6,4 km/h (2 Bft)
11.02.2010 01:40 -4,9 C 84 % 1011,6 hPa 0,0 mm 1,6 km/h (1 Bft) N-NO 22 0 min 0 UV-I 0 W/m 4,8 km/h (1 Bft)
11.02.2010 01:50 -4,9 C 84 % 1011,6 hPa 0,0 mm 1,6 km/h (1 Bft) N-NO 22 0 min 0 UV-I 0 W/m 8,0 km/h (2 Bft)
11.02.2010 02:00 -4,9 C 84 % 1011,8 hPa 0,0 mm 1,6 km/h (1 Bft) N-NO 22 0 min 0 UV-I 0 W/m 8,0 km/h (2 Bft)
11.02.2010 02:10 -4,8 C 84 % 1011,8 hPa 0,0 mm 1,6 km/h (1 Bft) O-NO 67 0 min 0 UV-I 0 W/m 4,8 km/h (1 Bft)
11.02.2010 02:20 -4,8 C 84 % 1011,7 hPa 0,0 mm 1,6 km/h (1 Bft) N-NO 22 0 min 0 UV-I 0 W/m 8,0 km/h (2 Bft)
11.02.2010 02:30 -4,8 C 85 % 1011,8 hPa 0,0 mm 3,2 km/h (1 Bft) NO 45 0 min 0 UV-I 0 W/m 11,3 km/h (2 Bft)
11.02.2010 02:40 -4,7 C 85 % 1011,9 hPa 0,0 mm 3,2 km/h (1 Bft) O-NO 67 0 min 0 UV-I 0 W/m 11,3 km/h (2 Bft)
11.02.2010 02:50 -4,7 C 85 % 1012,0 hPa 0,0 mm 3,2 km/h (1 Bft) O-NO 67 0 min 0 UV-I 0 W/m 11,3 km/h (2 Bft)
11.02.2010 03:00 -4,7 C 85 % 1012,0 hPa 0,0 mm 3,2 km/h (1 Bft) N-NO 22 0 min 0 UV-I 0 W/m 11,3 km/h (2 Bft)
11.02.2010 03:10 -4,7 C 85 % 1012,0 hPa 0,0 mm 3,2 km/h (1 Bft) NO 45 0 min 0 UV-I 0 W/m 8,0 km/h (2 Bft)
11.02.2010 03:20 -4,6 C 85 % 1012,0 hPa 0,0 mm 4,8 km/h (1 Bft) NO 45 0 min 0 UV-I 0 W/m 16,1 km/h (3 Bft)
11.02.2010 03:30 -4,6 C 85 % 1012,1 hPa 0,0 mm 4,8 km/h (1 Bft) O-NO 67 0 min 0 UV-I 0 W/m 16,1 km/h (3 Bft)
11.02.2010 03:40 -4,6 C 84 % 1012,2 hPa 0,0 mm 3,2 km/h (1 Bft) O-NO 67 0 min 0 UV-I 0 W/m 9,7 km/h (2 Bft)
11.02.2010 03:50 -4,6 C 84 % 1012,3 hPa 0,0 mm 3,2 km/h (1 Bft) N-NO 22 0 min 0 UV-I 0 W/m 11,3 km/h (2 Bft)
11.02.2010 04:00 -4,6 C 84 % 1012,3 hPa 0,0 mm 3,2 km/h (1 Bft) O 90 0 min 0 UV-I 0 W/m 11,3 km/h (2 Bft)
11.02.2010 04:10 -4,6 C 84 % 1012,2 hPa 0,0 mm 1,6 km/h (1 Bft) NO 45 0 min 0 UV-I 0 W/m 8,0 km/h (2 Bft)
11.02.2010 04:20 -4,6 C 84 % 1012,4 hPa 0,0 mm 1,6 km/h (1 Bft) N-NO 22 0 min 0 UV-I 0 W/m 9,7 km/h (2 Bft)
11.02.2010 04:30 -4,7 C 84 % 1012,4 hPa 0,0 mm 3,2 km/h (1 Bft) NO 45 0 min 0 UV-I 0 W/m 9,7 km/h (2 Bft)
11.02.2010 04:40 -4,7 C 84 % 1012,4 hPa 0,0 mm 3,2 km/h (1 Bft) N-NO 22 0 min 0 UV-I 0 W/m 8,0 km/h (2 Bft)
11.02.2010 04:50 -4,7 C 84 % 1012,3 hPa 0,0 mm 3,2 km/h (1 Bft) NO 45 0 min 0 UV-I 0 W/m 9,7 km/h (2 Bft)
11.02.2010 05:00 -4,7 C 84 % 1012,5 hPa 0,0 mm 1,6 km/h (1 Bft) N-NO 22 0 min 0 UV-I 0 W/m 8,0 km/h (2 Bft)
11.02.2010 05:10 -4,8 C 84 % 1012,6 hPa 0,0 mm 3,2 km/h (1 Bft) N-NO 22 0 min 0 UV-I 0 W/m 11,3 km/h (2 Bft)
11.02.2010 05:20 -4,8 C 84 % 1012,5 hPa 0,0 mm 3,2 km/h (1 Bft) O-NO 67 0 min 0 UV-I 0 W/m 12,9 km/h (3 Bft)
11.02.2010 05:30 -4,8 C 84 % 1012,5 hPa 0,0 mm 3,2 km/h (1 Bft) O-NO 67 0 min 0 UV-I 0 W/m 14,5 km/h (3 Bft)
11.02.2010 05:40 -4,8 C 84 % 1012,6 hPa 0,0 mm 4,8 km/h (1 Bft) NO 45 0 min 0 UV-I 0 W/m 16,1 km/h (3 Bft)
11.02.2010 05:50 -4,8 C 84 % 1012,7 hPa 0,0 mm 4,8 km/h (1 Bft) O-NO 67 0 min 0 UV-I 0 W/m 16,1 km/h (3 Bft)
11.02.2010 06:00 -4,8 C 85 % 1012,8 hPa 0,0 mm 3,2 km/h (1 Bft) N-NO 22 0 min 0 UV-I 0 W/m 11,3 km/h (2 Bft)
11.02.2010 06:10 -4,8 C 85 % 1012,8 hPa 0,0 mm 1,6 km/h (1 Bft) N-NO 22 0 min 0 UV-I 0 W/m 8,0 km/h (2 Bft)
11.02.2010 06:20 -4,8 C 85 % 1012,8 hPa 0,0 mm 3,2 km/h (1 Bft) NO 45 0 min 0 UV-I 0 W/m 11,3 km/h (2 Bft)
11.02.2010 06:30 -4,8 C 85 % 1012,8 hPa 0,0 mm 3,2 km/h (1 Bft) N-NO 22 0 min 0 UV-I 0 W/m 9,7 km/h (2 Bft)
11.02.2010 06:40 -4,8 C 85 % 1012,8 hPa 0,0 mm 1,6 km/h (1 Bft) N-NO 22 0 min 0 UV-I 0 W/m 8,0 km/h (2 Bft)
11.02.2010 06:50 -4,8 C 86 % 1012,7 hPa 0,0 mm 3,2 km/h (1 Bft) N-NO 22 0 min 0 UV-I 0 W/m 9,7 km/h (2 Bft)
11.02.2010 07:00 -4,8 C 86 % 1012,7 hPa 0,0 mm 3,2 km/h (1 Bft) N-NO 22 0 min 0 UV-I 0 W/m 9,7 km/h (2 Bft)
11.02.2010 07:10 -4,8 C 86 % 1012,7 hPa 0,0 mm 3,2 km/h (1 Bft) N-NO 22 0 min 0 UV-I 0 W/m 8,0 km/h (2 Bft)
11.02.2010 07:20 -4,8 C 86 % 1012,7 hPa 0,0 mm 3,2 km/h (1 Bft) N-NO 22 0 min 0 UV-I 0 W/m 8,0 km/h (2 Bft)
11.02.2010 07:30 -4,8 C 86 % 1012,8 hPa 0,0 mm 3,2 km/h (1 Bft) N 360 0 min 0 UV-I 0 W/m 8,0 km/h (2 Bft)
11.02.2010 07:40 -4,7 C 86 % 1012,9 hPa 0,0 mm 3,2 km/h (1 Bft) N 360 0 min 0 UV-I 0 W/m 14,5 km/h (3 Bft)
11.02.2010 07:50 -4,7 C 87 % 1012,9 hPa 0,0 mm 3,2 km/h (1 Bft) N-NO 22 0 min 0 UV-I 0 W/m 9,7 km/h (2 Bft)
11.02.2010 08:00 -4,7 C 87 % 1012,9 hPa 0,0 mm 1,6 km/h (1 Bft) N-NO 22 0 min 0 UV-I 0 W/m 8,0 km/h (2 Bft)
11.02.2010 08:10 -4,6 C 87 % 1012,9 hPa 0,0 mm 1,6 km/h (1 Bft) N-NO 22 0 min 0 UV-I 0 W/m 6,4 km/h (2 Bft)
11.02.2010 08:20 -4,6 C 87 % 1013,0 hPa 0,0 mm 1,6 km/h (1 Bft) N-NO 22 0 min 0 UV-I 7 W/m 8,0 km/h (2 Bft)
11.02.2010 08:30 -4,5 C 87 % 1012,9 hPa 0,0 mm 1,6 km/h (1 Bft) N 360 0 min 0 UV-I 14 W/m 8,0 km/h (2 Bft)
11.02.2010 08:40 -4,4 C 87 % 1013,0 hPa 0,0 mm 1,6 km/h (1 Bft) N-NO 22 0 min 0 UV-I 23 W/m 6,4 km/h (2 Bft)
11.02.2010 08:50 -4,3 C 87 % 1013,0 hPa 0,0 mm 1,6 km/h (1 Bft) N-NO 22 0 min 0 UV-I 25 W/m 8,0 km/h (2 Bft)
11.02.2010 09:00 -4,2 C 88 % 1013,0 hPa 0,0 mm 1,6 km/h (1 Bft) O-NO 67 0 min 0 UV-I 23 W/m 9,7 km/h (2 Bft)
11.02.2010 09:10 -4,1 C 88 % 1013,1 hPa 0,0 mm 1,6 km/h (1 Bft) N-NO 22 0 min 0 UV-I 21 W/m 9,7 km/h (2 Bft)
11.02.2010 09:20 -3,9 C 88 % 1013,1 hPa 0,0 mm 3,2 km/h (1 Bft) N-NO 22 0 min 0 UV-I 30 W/m 8,0 km/h (2 Bft)
11.02.2010 09:30 -3,8 C 88 % 1013,1 hPa 0,0 mm 3,2 km/h (1 Bft) O-NO 67 0 min 0 UV-I 40 W/m 16,1 km/h (3 Bft)
11.02.2010 09:40 -3,6 C 88 % 1013,2 hPa 0,0 mm 4,8 km/h (1 Bft) O-NO 67 0 min 0 UV-I 46 W/m 16,1 km/h (3 Bft)
11.02.2010 09:50 -3,3 C 88 % 1013,2 hPa 0,0 mm 6,4 km/h (2 Bft) NO 45 0 min 0 UV-I 58 W/m 19,3 km/h (3 Bft)
11.02.2010 10:00 -3,1 C 87 % 1013,2 hPa 0,0 mm 4,8 km/h (1 Bft) O-NO 67 0 min 0 UV-I 65 W/m 14,5 km/h (3 Bft)
11.02.2010 10:10 -2,9 C 87 % 1013,4 hPa 0,0 mm 6,4 km/h (2 Bft) O-NO 67 0 min 0 UV-I 67 W/m 17,7 km/h (3 Bft)
11.02.2010 10:20 -2,7 C 86 % 1013,4 hPa 0,0 mm 4,8 km/h (1 Bft) O-NO 67 0 min 0 UV-I 67 W/m 19,3 km/h (3 Bft)
11.02.2010 10:30 -2,6 C 85 % 1013,3 hPa 0,0 mm 4,8 km/h (1 Bft) NO 45 0 min 0 UV-I 58 W/m 16,1 km/h (3 Bft)
11.02.2010 10:40 -2,4 C 84 % 1013,3 hPa 0,0 mm 6,4 km/h (2 Bft) NO 45 0 min 0 UV-I 54 W/m 22,5 km/h (4 Bft)
11.02.2010 10:50 -2,3 C 83 % 1013,3 hPa 0,0 mm 4,8 km/h (1 Bft) O-NO 67 0 min 0 UV-I 58 W/m 19,3 km/h (3 Bft)
11.02.2010 11:00 -2,3 C 83 % 1013,3 hPa 0,0 mm 4,8 km/h (1 Bft) NO 45 0 min 0 UV-I 58 W/m 16,1 km/h (3 Bft)
11.02.2010 11:10 -2,2 C 82 % 1013,4 hPa 0,0 mm 4,8 km/h (1 Bft) O-NO 67 0 min 0 UV-I 58 W/m 22,5 km/h (4 Bft)
11.02.2010 11:20 -2,1 C 82 % 1013,4 hPa 0,0 mm 4,8 km/h (1 Bft) N-NO 22 0 min 0 UV-I 53 W/m 16,1 km/h (3 Bft)
11.02.2010 11:30 -2,1 C 81 % 1013,4 hPa 0,0 mm 3,2 km/h (1 Bft) NO 45 0 min 0 UV-I 53 W/m 14,5 km/h (3 Bft)
11.02.2010 11:40 -1,9 C 81 % 1013,3 hPa 0,0 mm 3,2 km/h (1 Bft) NO 45 0 min 0 UV-I 51 W/m 17,7 km/h (3 Bft)
11.02.2010 11:50 -1,9 C 81 % 1013,2 hPa 0,0 mm 4,8 km/h (1 Bft) O-NO 67 0 min 0 UV-I 62 W/m 14,5 km/h (3 Bft)
11.02.2010 12:00 -1,8 C 81 % 1013,2 hPa 0,0 mm 4,8 km/h (1 Bft) NO 45 0 min 0 UV-I 56 W/m 14,5 km/h (3 Bft)
11.02.2010 12:10 -1,8 C 81 % 1013,1 hPa 0,0 mm 4,8 km/h (1 Bft) N-NO 22 0 min 0 UV-I 54 W/m 14,5 km/h (3 Bft)
11.02.2010 12:20 -1,8 C 82 % 1013,1 hPa 0,0 mm 4,8 km/h (1 Bft) N-NO 22 0 min 0 UV-I 47 W/m 17,7 km/h (3 Bft)
11.02.2010 12:30 -1,8 C 82 % 1013,1 hPa 0,0 mm 4,8 km/h (1 Bft) O-NO 67 0 min 0 UV-I 67 W/m 19,3 km/h (3 Bft)
11.02.2010 12:40 -1,7 C 82 % 1013,0 hPa 0,0 mm 3,2 km/h (1 Bft) N-NO 22 0 min 1 UV-I 98 W/m 11,3 km/h (2 Bft)
11.02.2010 12:50 -1,6 C 82 % 1013,0 hPa 0,0 mm 4,8 km/h (1 Bft) NO 45 0 min 1 UV-I 107 W/m 20,9 km/h (4 Bft)
11.02.2010 13:00 -1,4 C 82 % 1013,0 hPa 0,0 mm 4,8 km/h (1 Bft) NO 45 0 min 1 UV-I 90 W/m 17,7 km/h (3 Bft)
11.02.2010 13:10 -1,4 C 82 % 1013,0 hPa 0,0 mm 4,8 km/h (1 Bft) O-NO 67 0 min 1 UV-I 105 W/m 16,1 km/h (3 Bft)
11.02.2010 13:20 -1,3 C 82 % 1012,9 hPa 0,0 mm 3,2 km/h (1 Bft) NO 45 0 min 1 UV-I 121 W/m 14,5 km/h (3 Bft)
11.02.2010 13:30 -1,2 C 82 % 1012,8 hPa 0,0 mm 4,8 km/h (1 Bft) N 360 0 min 1 UV-I 137 W/m 16,1 km/h (3 Bft)
11.02.2010 13:40 -1,1 C 81 % 1012,8 hPa 0,0 mm 4,8 km/h (1 Bft) O-NO 67 0 min 1 UV-I 171 W/m 17,7 km/h (3 Bft)
11.02.2010 13:50 -0,9 C 81 % 1012,7 hPa 0,0 mm 6,4 km/h (2 Bft) N 360 0 min 1 UV-I 163 W/m 22,5 km/h (4 Bft)
11.02.2010 14:00 -0,8 C 80 % 1012,4 hPa 0,3 mm 8,0 km/h (2 Bft) N-NO 22 0 min 1 UV-I 179 W/m 20,9 km/h (4 Bft)
11.02.2010 14:10 -0,8 C 78 % 1012,3 hPa 0,0 mm 9,7 km/h (2 Bft) N 360 0 min 1 UV-I 193 W/m 22,5 km/h (4 Bft)
11.02.2010 14:20 -0,7 C 77 % 1012,2 hPa 0,0 mm 8,0 km/h (2 Bft) N-NO 22 0 min 1 UV-I 183 W/m 24,1 km/h (4 Bft)
11.02.2010 14:30 -0,6 C 77 % 1012,3 hPa 0,0 mm 9,7 km/h (2 Bft) N-NO 22 0 min 1 UV-I 151 W/m 24,1 km/h (4 Bft)
11.02.2010 14:40 -0,7 C 78 % 1012,4 hPa 0,0 mm 8,0 km/h (2 Bft) N-NO 22 0 min 1 UV-I 107 W/m 20,9 km/h (4 Bft)
11.02.2010 14:50 -0,8 C 79 % 1012,3 hPa 0,0 mm 8,0 km/h (2 Bft) N 360 0 min 1 UV-I 109 W/m 20,9 km/h (4 Bft)
11.02.2010 15:00 -0,9 C 80 % 1012,3 hPa 0,0 mm 8,0 km/h (2 Bft) N-NO 22 0 min 1 UV-I 98 W/m 20,9 km/h (4 Bft)
11.02.2010 15:10 -1,1 C 81 % 1012,3 hPa 0,0 mm 6,4 km/h (2 Bft) N-NO 22 0 min 1 UV-I 111 W/m 22,5 km/h (4 Bft)
11.02.2010 15:20 -1,1 C 82 % 1012,4 hPa 0,0 mm 6,4 km/h (2 Bft) N-NO 22 0 min 1 UV-I 109 W/m 19,3 km/h (3 Bft)
11.02.2010 15:30 -1,2 C 82 % 1012,5 hPa 0,0 mm 9,7 km/h (2 Bft) N-NO 22 0 min 0 UV-I 79 W/m 22,5 km/h (4 Bft)
11.02.2010 15:40 -1,3 C 83 % 1012,5 hPa 0,0 mm 4,8 km/h (1 Bft) N-NO 22 0 min 0 UV-I 56 W/m 17,7 km/h (3 Bft)
11.02.2010 15:50 -1,4 C 83 % 1012,7 hPa 0,0 mm 6,4 km/h (2 Bft) N-NO 22 0 min 0 UV-I 49 W/m 17,7 km/h (3 Bft)
11.02.2010 16:00 -1,6 C 84 % 1012,7 hPa 0,0 mm 3,7 km/h (1 Bft) N 355 0 min 0 UV-I 40 W/m 8,0 km/h (2 Bft)
11.02.2010 16:10 -1,7 C 84 % 1012,7 hPa 0,0 mm 4,8 km/h (1 Bft) N-NO 22 0 min 0 UV-I 37 W/m 16,1 km/h (3 Bft)
11.02.2010 16:20 -1,7 C 84 % 1012,7 hPa 0,0 mm 6,4 km/h (2 Bft) N 360 0 min 0 UV-I 32 W/m 17,7 km/h (3 Bft)
11.02.2010 16:30 -1,8 C 84 % 1012,8 hPa 0,0 mm 4,8 km/h (1 Bft) N-NO 22 0 min 0 UV-I 21 W/m 16,1 km/h (3 Bft)
11.02.2010 16:40 -1,9 C 84 % 1012,8 hPa 0,0 mm 4,8 km/h (1 Bft) N-NO 22 0 min 0 UV-I 16 W/m 20,9 km/h (4 Bft)
11.02.2010 16:50 -2,1 C 84 % 1012,7 hPa 0,0 mm 6,4 km/h (2 Bft) N-NO 22 0 min 0 UV-I 14 W/m 17,7 km/h (3 Bft)
11.02.2010 17:00 -2,2 C 85 % 1012,7 hPa 0,0 mm 6,4 km/h (2 Bft) N-NO 22 0 min 0 UV-I 12 W/m 17,7 km/h (3 Bft)
11.02.2010 17:10 -2,3 C 85 % 1012,9 hPa 0,0 mm 4,8 km/h (1 Bft) N-NO 22 0 min 0 UV-I 9 W/m 17,7 km/h (3 Bft)
11.02.2010 17:20 -2,4 C 85 % 1012,9 hPa 0,0 mm 8,0 km/h (2 Bft) N 360 0 min 0 UV-I 0 W/m 20,9 km/h (4 Bft)
11.02.2010 17:30 -2,5 C 86 % 1012,9 hPa 0,0 mm 6,4 km/h (2 Bft) N-NO 22 0 min 0 UV-I 0 W/m 17,7 km/h (3 Bft)
11.02.2010 17:40 -2,6 C 86 % 1012,9 hPa 0,0 mm 9,7 km/h (2 Bft) N-NO 22 0 min 0 UV-I 0 W/m 24,1 km/h (4 Bft)
11.02.2010 17:50 -2,6 C 86 % 1013,0 hPa 0,0 mm 8,0 km/h (2 Bft) N-NO 22 0 min 0 UV-I 0 W/m 22,5 km/h (4 Bft)
11.02.2010 18:00 -2,7 C 86 % 1013,1 hPa 0,0 mm 8,0 km/h (2 Bft) N-NO 22 0 min 0 UV-I 0 W/m 29,0 km/h (5 Bft)
11.02.2010 18:10 -2,7 C 86 % 1013,2 hPa 0,0 mm 6,4 km/h (2 Bft) N-NO 22 0 min 0 UV-I 0 W/m 24,1 km/h (4 Bft)
11.02.2010 18:20 -2,7 C 86 % 1013,2 hPa 0,0 mm 8,0 km/h (2 Bft) N-NO 22 0 min 0 UV-I 0 W/m 19,3 km/h (3 Bft)
11.02.2010 18:30 -2,7 C 86 % 1013,1 hPa 0,0 mm 9,7 km/h (2 Bft) N-NO 22 0 min 0 UV-I 0 W/m 22,5 km/h (4 Bft)
11.02.2010 18:40 -2,7 C 86 % 1013,1 hPa 0,0 mm 8,0 km/h (2 Bft) N 360 0 min 0 UV-I 0 W/m 24,1 km/h (4 Bft)
11.02.2010 18:50 -2,7 C 86 % 1013,3 hPa 0,0 mm 6,4 km/h (2 Bft) N 360 0 min 0 UV-I 0 W/m 19,3 km/h (3 Bft)
11.02.2010 19:00 -2,7 C 86 % 1013,3 hPa 0,0 mm 4,8 km/h (1 Bft) N-NO 22 0 min 0 UV-I 0 W/m 16,1 km/h (3 Bft)
11.02.2010 19:10 -2,7 C 86 % 1013,2 hPa 0,0 mm 4,8 km/h (1 Bft) N-NO 22 0 min 0 UV-I 0 W/m 14,5 km/h (3 Bft)
11.02.2010 19:20 -2,7 C 86 % 1013,3 hPa 0,0 mm 6,4 km/h (2 Bft) N-NO 22 0 min 0 UV-I 0 W/m 17,7 km/h (3 Bft)
11.02.2010 19:30 -2,6 C 86 % 1013,4 hPa 0,0 mm 9,7 km/h (2 Bft) N-NO 22 0 min 0 UV-I 0 W/m 22,5 km/h (4 Bft)
11.02.2010 19:40 -2,6 C 86 % 1013,4 hPa 0,0 mm 6,4 km/h (2 Bft) N-NO 22 0 min 0 UV-I 0 W/m 17,7 km/h (3 Bft)
11.02.2010 19:50 -2,6 C 86 % 1013,4 hPa 0,0 mm 6,4 km/h (2 Bft) N-NO 22 0 min 0 UV-I 0 W/m 19,3 km/h (3 Bft)
11.02.2010 20:00 -2,6 C 86 % 1013,4 hPa 0,0 mm 4,8 km/h (1 Bft) N-NO 22 0 min 0 UV-I 0 W/m 17,7 km/h (3 Bft)
11.02.2010 20:10 -2,6 C 86 % 1013,5 hPa 0,0 mm 6,4 km/h (2 Bft) N 360 0 min 0 UV-I 0 W/m 19,3 km/h (3 Bft)
11.02.2010 20:20 -2,6 C 86 % 1013,5 hPa 0,0 mm 4,8 km/h (1 Bft) N-NO 22 0 min 0 UV-I 0 W/m 11,3 km/h (2 Bft)
11.02.2010 20:30 -2,5 C 86 % 1013,6 hPa 0,0 mm 4,8 km/h (1 Bft) N-NO 22 0 min 0 UV-I 0 W/m 17,7 km/h (3 Bft)
11.02.2010 20:40 -2,5 C 86 % 1013,6 hPa 0,0 mm 6,4 km/h (2 Bft) N 360 0 min 0 UV-I 0 W/m 16,1 km/h (3 Bft)
11.02.2010 20:50 -2,4 C 86 % 1013,7 hPa 0,0 mm 4,8 km/h (1 Bft) N 360 0 min 0 UV-I 0 W/m 22,5 km/h (4 Bft)
11.02.2010 21:00 -2,4 C 86 % 1013,7 hPa 0,0 mm 4,8 km/h (1 Bft) N-NO 22 0 min 0 UV-I 0 W/m 17,7 km/h (3 Bft)
11.02.2010 21:10 -2,4 C 86 % 1013,7 hPa 0,0 mm 3,2 km/h (1 Bft) N 360 0 min 0 UV-I 0 W/m 12,9 km/h (3 Bft)
11.02.2010 21:20 -2,4 C 86 % 1013,7 hPa 0,0 mm 3,2 km/h (1 Bft) N-NO 22 0 min 0 UV-I 0 W/m 11,3 km/h (2 Bft)
11.02.2010 21:30 -2,4 C 86 % 1013,8 hPa 0,0 mm 3,2 km/h (1 Bft) N 360 0 min 0 UV-I 0 W/m 12,9 km/h (3 Bft)
11.02.2010 21:40 -2,4 C 86 % 1013,9 hPa 0,0 mm 3,2 km/h (1 Bft) N-NO 22 0 min 0 UV-I 0 W/m 16,1 km/h (3 Bft)
11.02.2010 22:00 -2,4 C 86 % 1013,9 hPa 0,0 mm 2,5 km/h (1 Bft) W 263 0 min 0 UV-I 0 W/m 14,5 km/h (3 Bft)
11.02.2010 22:10 -2,3 C 86 % 1013,8 hPa 0,0 mm 3,8 km/h (1 Bft) N 360 0 min 0 UV-I 0 W/m 14,5 km/h (3 Bft)
11.02.2010 22:20 -2,3 C 86 % 1013,8 hPa 0,0 mm 3,4 km/h (1 Bft) N-NO 33 0 min 0 UV-I 0 W/m 11,3 km/h (2 Bft)
11.02.2010 22:30 -2,3 C 86 % 1013,9 hPa 0,0 mm 2,7 km/h (1 Bft) N 355 0 min 0 UV-I 0 W/m 11,3 km/h (2 Bft)
11.02.2010 22:40 -2,3 C 86 % 1014,0 hPa 0,0 mm 4,1 km/h (1 Bft) N 11 0 min 0 UV-I 0 W/m 11,3 km/h (2 Bft)
11.02.2010 22:50 -2,3 C 86 % 1013,9 hPa 0,0 mm 3,7 km/h (1 Bft) N-NO 20 0 min 0 UV-I 0 W/m 16,1 km/h (3 Bft)
11.02.2010 23:00 -2,3 C 86 % 1013,9 hPa 0,0 mm 3,6 km/h (1 Bft) N 9 0 min 0 UV-I 0 W/m 14,5 km/h (3 Bft)
11.02.2010 23:10 -2,3 C 86 % 1013,8 hPa 0,0 mm 5,3 km/h (1 Bft) O 91 0 min 0 UV-I 0 W/m 17,7 km/h (3 Bft)
11.02.2010 23:20 -2,3 C 86 % 1013,8 hPa 0,0 mm 5,2 km/h (1 Bft) N-NO 24 0 min 0 UV-I 0 W/m 16,1 km/h (3 Bft)
11.02.2010 23:30 -2,3 C 86 % 1013,8 hPa 0,0 mm 6,5 km/h (2 Bft) N 360 0 min 0 UV-I 0 W/m 16,1 km/h (3 Bft)
11.02.2010 23:40 -2,3 C 86 % 1013,8 hPa 0,0 mm 5,5 km/h (1 Bft) N 9 0 min 0 UV-I 0 W/m 19,3 km/h (3 Bft)
11.02.2010 23:50 -2,4 C 86 % 1013,9 hPa 0,0 mm 5,2 km/h (1 Bft) N 355 0 min 0 UV-I 0 W/m 20,9 km/h (4 Bft)
_ Min-Zeit 00:00 14:20 01:40 - 01:20 - - - - - 01:20
Minimum _ -5,6 C 77 % 1011,6 hPa - 0,0 km/h (0 Bft) - - - - - 3,2 km/h (1 Bft)
_ Max-Zeit 14:20 09:00 22:40 14:00 14:10 - - 00:00 14:10 14:10 18:00
Maximum _ -0,6 C 88 % 1014,0 hPa 0,3 mm 9,7 km/h
N (2 Bft)
- - 0 min 1 UV-I 193 W/m 29,0 km/h
N (5 Bft)
Durchschnitt _ -3,2 C 84 % 1012,9 hPa #0,3 mm 4,4 km/h (1 Bft) N-NO - #0 min. 1 UV-I 71 W/m 14,5 km/h (3 Bft)